sat.trackr.live / text

‹ back to catalog

STARLINK-34377

NORAD 64279 · 2025-120Z

PAYLOAD ACTIVE UNKNOWN

§ Identity

Operator
Country
US
Launch date
2025-06-04
Launch site
AFWTR
Launch vehicle
Mass (kg)
RCS (m²)

Purposes: comms

External: N2YO · Heavens-Above · Gunter

§ Orbital elements

Epoch: 2026-09-20T10:16:10.648992Z

Period
93.85 min
Inclination
53.1581°
Eccentricity
0.0001006
Mean motion
15.34415380 rev/d
Perigee alt
462.0 km
Apogee alt
463.3 km
Semi-major
6,840.8 km
B*
7.6395e-5
RAAN
286.3140°
Arg perigee
90.1573°
Mean anomaly
269.9545°
Rev number
7,381

§ Raw data

STARLINK-343771 64279U 25120Z   26263.42790103  .00002207  00000+0  76395-4 0  99972 64279  53.1581 286.3140 0001006  90.1573 269.9545 15.34415380 73812

JSON: /api/v1/satellites/64279 · /tle

For live sub-satellite position, see the globe view (requires WebGL).

§ Visibility from observer

Set your observer location to see the next 7 days of passes ≥ 10°. The values pass through the URL so the page stays shareable.

No JS? Fill the form by hand. The geolocation button needs JavaScript.